KQA508 HKJK-DGAA

Flight info

Callsign KQA508
Flight time N/A
Altitude 40000
Route NAKAT4B/06 NAKAT UL433 NN UL434 NLY UR984 DLA UP685 ARDEX UA601 TYE/N0476F240 L433 EREKA EREKA1B
Aircraft B788/H-SDE1E2E3FGHIJ2J3J4J5M1RWXYZ/LB1D1

Departure

Time N/A
Airport Jomo Kenyatta International Airport (HKJK)

Arrival

Time 2026-04-20 21:09
Airport Kotoka International Airport (DGAA)
Time Latitude Longitude Altitude Speed Heading
2026-04-20 18:04 1.33514 21.92104 39849 ft 513 kts 283°
2026-04-20 18:04 1.35208 21.85251 39854 ft 496 kts 283°
2026-04-20 18:04 1.36025 21.81944 39831 ft 485 kts 283°
2026-04-20 18:05 1.37628 21.75455 39840 ft 483 kts 283°
2026-04-20 18:05 1.39252 21.68880 39859 ft 489 kts 283°
2026-04-20 18:06 1.40882 21.62278 39841 ft 489 kts 283°
2026-04-20 18:06 1.42510 21.55687 39845 ft 489 kts 283°
2026-04-20 18:07 1.42623 21.55230 39846 ft 489 kts 283°
2026-04-20 18:09 1.43347 21.52296 39853 ft 490 kts 283°
2026-04-20 18:09 1.44971 21.45667 39845 ft 492 kts 283°
2026-04-20 18:10 1.46590 21.39036 39842 ft 491 kts 283°
2026-04-20 18:10 1.48211 21.32399 39854 ft 492 kts 283°
2026-04-20 18:11 1.49833 21.25757 39843 ft 492 kts 283°
2026-04-20 18:11 1.51455 21.19120 39845 ft 492 kts 283°
2026-04-20 18:12 1.53077 21.12480 39853 ft 492 kts 283°
2026-04-20 18:12 1.54698 21.05839 39840 ft 492 kts 283°
2026-04-20 18:13 1.56309 20.99242 39849 ft 492 kts 283°
2026-04-20 18:13 1.57944 20.92545 39852 ft 494 kts 283°
2026-04-20 18:14 1.59560 20.85925 39839 ft 493 kts 283°
2026-04-20 18:14 1.60380 20.82563 39084 ft 502 kts 283°
2026-04-20 18:14 1.60900 20.79030 38207 ft 503 kts 278°
2026-04-20 18:15 1.61432 20.75670 37307 ft 497 kts 279°
2026-04-20 18:15 1.62048 20.72252 37376 ft 467 kts 281°
2026-04-20 18:15 1.62645 20.69299 39369 ft 412 kts 281°
2026-04-20 18:15 1.63311 20.66540 39062 ft 413 kts 287°
2026-04-20 18:16 1.64293 20.63756 38404 ft 434 kts 290°
2026-04-20 18:16 1.65300 20.60855 38001 ft 449 kts 289°
2026-04-20 18:16 1.66235 20.57833 37662 ft 464 kts 287°
2026-04-20 18:16 1.67126 20.54693 37372 ft 477 kts 285°
2026-04-20 18:17 1.67993 20.51441 37211 ft 488 kts 285°
2026-04-20 18:17 1.68843 20.48137 37257 ft 494 kts 284°
2026-04-20 18:17 1.69682 20.44809 37450 ft 497 kts 284°
2026-04-20 18:17 1.70524 20.41444 37754 ft 498 kts 284°
2026-04-20 18:18 1.71365 20.38076 38141 ft 497 kts 284°
2026-04-20 18:18 1.72201 20.34725 38524 ft 496 kts 284°
2026-04-20 18:18 1.73032 20.31397 38887 ft 494 kts 284°
2026-04-20 18:18 1.73832 20.28194 39206 ft 493 kts 284°
2026-04-20 18:19 1.74646 20.24937 39501 ft 492 kts 284°
2026-04-20 18:19 1.75527 20.21415 39742 ft 490 kts 284°
2026-04-20 18:19 1.76914 20.15865 39832 ft 489 kts 284°
2026-04-20 18:20 1.78573 20.09225 39841 ft 486 kts 284°
2026-04-20 18:20 1.80209 20.02676 39853 ft 486 kts 284°
2026-04-20 18:21 1.81850 19.96108 39843 ft 487 kts 284°
2026-04-20 18:21 1.83466 19.89547 39844 ft 486 kts 283°
2026-04-20 18:22 1.85071 19.82981 39853 ft 487 kts 283°
2026-04-20 18:22 1.86668 19.76446 39840 ft 487 kts 283°
2026-04-20 18:23 1.88285 19.69834 39849 ft 487 kts 283°
2026-04-20 18:23 1.89895 19.63253 39849 ft 487 kts 283°
2026-04-20 18:24 1.91502 19.56679 39840 ft 487 kts 283°
2026-04-20 18:24 1.93111 19.50100 39853 ft 487 kts 283°
2026-04-20 18:25 1.94730 19.43536 39843 ft 486 kts 283°
2026-04-20 18:25 1.96350 19.36984 39846 ft 486 kts 283°
2026-04-20 18:26 1.97970 19.30429 39852 ft 486 kts 283°
2026-04-20 18:26 1.99591 19.23869 39840 ft 486 kts 283°
2026-04-20 18:27 2.01207 19.17306 39852 ft 486 kts 283°
2026-04-20 18:27 2.02813 19.10737 39848 ft 486 kts 283°
2026-04-20 18:28 2.04414 19.04175 39841 ft 486 kts 283°
2026-04-20 18:28 2.06018 18.97606 39854 ft 486 kts 283°
2026-04-20 18:29 2.07618 18.91052 39842 ft 485 kts 283°
2026-04-20 18:29 2.09219 18.84491 39847 ft 485 kts 283°
2026-04-20 18:30 2.10818 18.77946 39858 ft 483 kts 282°
2026-04-20 18:30 2.12403 18.71452 39859 ft 479 kts 282°
2026-04-20 18:31 2.13980 18.64983 39874 ft 479 kts 282°
2026-04-20 18:31 2.15557 18.58512 39867 ft 479 kts 282°
2026-04-20 18:32 2.17132 18.52056 39876 ft 477 kts 282°
2026-04-20 18:32 2.18719 18.45613 39884 ft 478 kts 282°
2026-04-20 18:33 2.20329 18.39145 39876 ft 482 kts 282°
2026-04-20 18:33 2.21951 18.32623 39363 ft 482 kts 282°
2026-04-20 18:34 2.22724 18.29417 32809 ft 514 kts 285°
2026-04-20 18:34 2.23930 18.25463 29260 ft 605 kts 286°
2026-04-20 18:34 2.24986 18.21827 32297 ft 505 kts 285°
2026-04-20 18:34 2.25807 18.18550 33327 ft 468 kts 284°
2026-04-20 18:35 2.26478 18.15511 34249 ft 427 kts 283°
2026-04-20 18:35 2.27081 18.12799 35082 ft 394 kts 283°
2026-04-20 18:35 2.27647 18.10054 34524 ft 410 kts 282°
2026-04-20 18:35 2.28210 18.07217 34116 ft 431 kts 282°
2026-04-20 18:36 2.28818 18.04215 33739 ft 451 kts 282°
2026-04-20 18:36 2.29471 18.01080 33423 ft 469 kts 283°
2026-04-20 18:36 2.30155 17.97855 33367 ft 480 kts 283°
2026-04-20 18:36 2.30860 17.94560 33516 ft 487 kts 283°
2026-04-20 18:37 2.31573 17.91243 33771 ft 491 kts 283°
2026-04-20 18:37 2.32293 17.87898 34089 ft 493 kts 283°
2026-04-20 18:37 2.33016 17.84546 34462 ft 494 kts 283°
2026-04-20 18:37 2.33741 17.81187 34848 ft 494 kts 282°
2026-04-20 18:38 2.34468 17.77822 35194 ft 496 kts 282°
2026-04-20 18:38 2.35207 17.74447 35488 ft 498 kts 282°
2026-04-20 18:38 2.35959 17.71068 35839 ft 499 kts 283°
2026-04-20 18:38 2.36721 17.67675 36153 ft 501 kts 283°
2026-04-20 18:39 2.37488 17.64271 36494 ft 502 kts 283°
2026-04-20 18:39 2.38253 17.60877 36972 ft 499 kts 283°
2026-04-20 18:39 2.39011 17.57513 37482 ft 496 kts 282°
2026-04-20 18:39 2.39765 17.54162 37974 ft 492 kts 282°
2026-04-20 18:40 2.40514 17.50832 38406 ft 489 kts 282°
2026-04-20 18:40 2.41257 17.47529 38808 ft 486 kts 282°
2026-04-20 18:40 2.41997 17.44238 39167 ft 483 kts 282°
2026-04-20 18:40 2.42731 17.40970 39490 ft 481 kts 281°
2026-04-20 18:41 2.43460 17.37721 39714 ft 479 kts 281°
2026-04-20 18:41 2.44189 17.34471 39824 ft 478 kts 281°
2026-04-20 18:41 2.45640 17.28005 39837 ft 475 kts 281°
2026-04-20 18:42 2.47083 17.21573 39849 ft 474 kts 281°
2026-04-20 18:42 2.48528 17.15134 39849 ft 474 kts 281°
2026-04-20 18:43 2.49972 17.08699 39840 ft 474 kts 281°
2026-04-20 18:43 2.51412 17.02282 39852 ft 472 kts 281°
2026-04-20 18:44 2.52850 16.95871 39845 ft 473 kts 281°
2026-04-20 18:44 2.54288 16.89458 39833 ft 473 kts 281°
2026-04-20 18:45 2.55726 16.83045 39845 ft 473 kts 281°
2026-04-20 18:45 2.56499 16.79599 39846 ft 473 kts 281°
2026-04-20 18:46 2.57256 16.76220 39838 ft 473 kts 281°
2026-04-20 18:46 2.58691 16.69816 39789 ft 473 kts 281°
2026-04-20 18:47 2.59418 16.66569 39467 ft 472 kts 281°
2026-04-20 18:47 2.60125 16.63469 40411 ft 449 kts 281°
2026-04-20 18:47 2.61500 16.57341 40212 ft 460 kts 281°
2026-04-20 18:48 2.62188 16.54234 40004 ft 467 kts 281°
2026-04-20 18:48 2.62897 16.51044 39893 ft 473 kts 281°
2026-04-20 18:48 2.64339 16.44587 39884 ft 479 kts 281°
2026-04-20 18:49 2.65803 16.38047 39879 ft 484 kts 281°
2026-04-20 18:49 2.67279 16.31457 39869 ft 485 kts 281°
2026-04-20 18:50 2.68752 16.24873 39878 ft 484 kts 281°
2026-04-20 18:50 2.70221 16.18304 39883 ft 485 kts 281°
2026-04-20 18:51 2.71690 16.11736 39870 ft 485 kts 281°
2026-04-20 18:51 2.73163 16.05144 39875 ft 484 kts 281°
2026-04-20 18:52 2.74632 15.98571 39884 ft 485 kts 281°
2026-04-20 18:52 2.76105 15.91977 39872 ft 485 kts 281°
2026-04-20 18:53 2.77577 15.85383 39872 ft 485 kts 281°
2026-04-20 18:53 2.79045 15.78810 39884 ft 485 kts 281°
2026-04-20 18:54 2.80518 15.72209 39592 ft 491 kts 281°
2026-04-20 18:54 2.81257 15.68891 39477 ft 485 kts 281°
2026-04-20 18:54 2.81986 15.65631 39682 ft 478 kts 281°
2026-04-20 18:55 2.82712 15.62380 39838 ft 477 kts 281°
2026-04-20 18:55 2.83436 15.59134 39875 ft 480 kts 281°
2026-04-20 18:55 2.83701 15.57946 39878 ft 481 kts 281°
2026-04-20 18:56 2.85194 15.51248 39844 ft 486 kts 281°
2026-04-20 18:56 2.85933 15.47933 39576 ft 488 kts 281°
2026-04-20 18:56 2.86665 15.44655 39743 ft 479 kts 281°
2026-04-20 18:57 2.87389 15.41411 39851 ft 478 kts 281°
2026-04-20 18:57 2.88115 15.38152 39871 ft 481 kts 281°
2026-04-20 18:57 2.89574 15.31602 39881 ft 484 kts 281°
2026-04-20 18:58 2.91036 15.25042 39871 ft 483 kts 281°
2026-04-20 18:58 2.92497 15.18481 39877 ft 482 kts 281°
2026-04-20 18:59 2.93953 15.11940 39881 ft 483 kts 281°
2026-04-20 18:59 2.95187 15.06398 39869 ft 483 kts 281°
2026-04-20 19:00 2.96644 14.99852 39878 ft 482 kts 281°
2026-04-20 19:00 2.98089 14.93356 39881 ft 483 kts 281°
2026-04-20 19:01 2.99549 14.86791 39869 ft 483 kts 281°
2026-04-20 19:01 3.01007 14.80231 39879 ft 483 kts 281°
2026-04-20 19:02 3.02464 14.73672 39880 ft 484 kts 281°
2026-04-20 19:02 3.03924 14.67101 39869 ft 484 kts 281°
2026-04-20 19:03 3.05384 14.60530 39886 ft 482 kts 281°
2026-04-20 19:03 3.06832 14.54013 39894 ft 478 kts 281°
2026-04-20 19:04 3.08273 14.47521 39899 ft 480 kts 281°
2026-04-20 19:04 3.09720 14.41003 39888 ft 480 kts 281°
2026-04-20 19:05 3.11167 14.34481 39900 ft 479 kts 281°
2026-04-20 19:05 3.12610 14.27975 39899 ft 480 kts 281°
2026-04-20 19:06 3.14056 14.21455 39889 ft 480 kts 281°
2026-04-20 19:06 3.15500 14.14939 39901 ft 479 kts 281°
2026-04-20 19:07 3.16945 14.08416 39894 ft 480 kts 281°
2026-04-20 19:07 3.18389 14.01901 39894 ft 479 kts 281°
2026-04-20 19:08 3.20541 13.92182 39916 ft 479 kts 281°
2026-04-20 19:09 3.21988 13.85645 39931 ft 478 kts 281°
2026-04-20 19:09 3.23423 13.79156 39947 ft 477 kts 281°
2026-04-20 19:10 3.24855 13.72680 39964 ft 476 kts 281°
2026-04-20 19:10 3.26287 13.66209 39979 ft 476 kts 281°
2026-04-20 19:11 3.27716 13.59744 39985 ft 476 kts 281°
2026-04-20 19:11 3.29147 13.53274 39972 ft 476 kts 281°
2026-04-20 19:12 3.30576 13.46803 39971 ft 477 kts 281°
2026-04-20 19:12 3.32006 13.40323 39966 ft 476 kts 281°
2026-04-20 19:13 3.33422 13.33909 39973 ft 475 kts 281°
2026-04-20 19:13 3.34848 13.27451 39961 ft 476 kts 281°
2026-04-20 19:14 3.36274 13.20990 39946 ft 476 kts 281°
2026-04-20 19:14 3.37701 13.14518 39940 ft 476 kts 281°
2026-04-20 19:15 3.39126 13.08055 39941 ft 476 kts 281°
2026-04-20 19:15 3.40566 13.01526 39922 ft 480 kts 281°
2026-04-20 19:16 3.42003 12.95001 39906 ft 480 kts 281°
2026-04-20 19:16 3.43438 12.88486 39905 ft 479 kts 281°
2026-04-20 19:17 3.44870 12.81980 39915 ft 479 kts 281°
2026-04-20 19:17 3.46306 12.75457 39903 ft 480 kts 281°
2026-04-20 19:18 3.47739 12.68942 39910 ft 479 kts 281°
2026-04-20 19:18 3.49170 12.62434 39912 ft 479 kts 281°
2026-04-20 19:19 3.50605 12.55910 39896 ft 481 kts 281°
2026-04-20 19:19 3.52046 12.49353 39878 ft 482 kts 281°
2026-04-20 19:20 3.53487 12.42795 39872 ft 483 kts 281°
2026-04-20 19:20 3.54928 12.36232 39883 ft 483 kts 281°
2026-04-20 19:21 3.56365 12.29684 39875 ft 478 kts 281°
2026-04-20 19:21 3.57782 12.23236 39869 ft 472 kts 281°
2026-04-20 19:22 3.59194 12.16796 39886 ft 475 kts 281°
2026-04-20 19:22 3.60611 12.10337 39872 ft 475 kts 281°
2026-04-20 19:23 3.62021 12.03900 39886 ft 469 kts 281°
2026-04-20 19:23 3.63419 11.97524 39906 ft 470 kts 281°
2026-04-20 19:24 3.64822 11.91117 39913 ft 471 kts 281°
2026-04-20 19:24 3.66226 11.84710 39903 ft 471 kts 281°
2026-04-20 19:25 3.67625 11.78317 39917 ft 470 kts 281°
2026-04-20 19:25 3.69016 11.71960 39917 ft 471 kts 282°
2026-04-20 19:26 3.70427 11.65508 39907 ft 470 kts 282°
2026-04-20 19:26 3.71814 11.59169 39918 ft 470 kts 282°
2026-04-20 19:27 3.73013 11.52734 39911 ft 470 kts 278°
2026-04-20 19:27 3.73994 11.46262 39919 ft 471 kts 278°
2026-04-20 19:28 3.74951 11.39764 39934 ft 472 kts 278°
2026-04-20 19:28 3.75912 11.33268 39923 ft 472 kts 277°
2026-04-20 19:29 3.76876 11.26771 39906 ft 472 kts 277°
2026-04-20 19:29 3.77841 11.20273 39888 ft 472 kts 277°
2026-04-20 19:30 3.78807 11.13768 39866 ft 473 kts 277°
2026-04-20 19:30 3.79773 11.07257 39843 ft 473 kts 277°
2026-04-20 19:31 3.80739 11.00744 39820 ft 474 kts 277°
2026-04-20 19:31 3.81708 10.94207 39802 ft 474 kts 277°
2026-04-20 19:32 3.82675 10.87678 39790 ft 475 kts 277°
2026-04-20 19:32 3.83643 10.81140 39798 ft 474 kts 277°
2026-04-20 19:33 3.84613 10.74599 39798 ft 477 kts 277°
2026-04-20 19:33 3.85590 10.68006 39784 ft 479 kts 277°
2026-04-20 19:34 3.86559 10.61453 39777 ft 478 kts 277°
2026-04-20 19:34 3.87543 10.54791 39763 ft 484 kts 276°
2026-04-20 19:35 3.88530 10.48104 39744 ft 485 kts 276°
2026-04-20 19:35 3.89511 10.41461 39732 ft 485 kts 276°
2026-04-20 19:36 3.90504 10.34732 39740 ft 485 kts 276°
2026-04-20 19:36 3.91489 10.28045 39733 ft 486 kts 276°
2026-04-20 19:37 3.92469 10.21399 39726 ft 485 kts 276°
2026-04-20 19:37 3.93459 10.14674 39742 ft 484 kts 276°
2026-04-20 19:38 3.94438 10.08036 39742 ft 481 kts 276°
2026-04-20 19:38 3.95411 10.01428 39731 ft 483 kts 276°
2026-04-20 19:39 3.96391 9.94767 39738 ft 483 kts 276°
2026-04-20 19:39 3.97377 9.88065 39746 ft 483 kts 276°
2026-04-20 19:40 3.98349 9.81458 39741 ft 483 kts 276°
2026-04-20 19:40 3.99268 9.74784 39752 ft 483 kts 274°
2026-04-20 19:41 3.99838 9.68094 39743 ft 483 kts 272°
2026-04-20 19:41 4.00300 9.61398 39755 ft 480 kts 271°
2026-04-20 19:42 4.00676 9.55859 39777 ft 478 kts 271°
2026-04-20 19:42 4.01132 9.49189 39815 ft 476 kts 272°
2026-04-20 19:43 4.01663 9.41500 39865 ft 476 kts 272°
2026-04-20 19:43 4.02121 9.34877 39905 ft 476 kts 272°
2026-04-20 19:44 4.02579 9.28263 39930 ft 476 kts 272°
2026-04-20 19:44 4.02958 9.22764 39926 ft 477 kts 272°
2026-04-20 19:45 4.03415 9.16122 39891 ft 478 kts 272°
2026-04-20 19:45 4.03871 9.09480 39848 ft 479 kts 271°
2026-04-20 19:46 4.04328 9.02794 39807 ft 482 kts 271°
2026-04-20 19:46 4.04787 8.96091 39775 ft 483 kts 271°
2026-04-20 19:47 4.05246 8.89380 39756 ft 483 kts 271°
2026-04-20 19:47 4.05704 8.82674 39756 ft 483 kts 271°
2026-04-20 19:48 4.06162 8.75964 39772 ft 482 kts 271°
2026-04-20 19:48 4.06619 8.69259 39769 ft 483 kts 271°
2026-04-20 19:49 4.07076 8.62536 39755 ft 487 kts 271°
2026-04-20 19:49 4.07537 8.55756 39753 ft 488 kts 271°
2026-04-20 19:50 4.07998 8.48978 39768 ft 487 kts 271°
2026-04-20 19:50 4.08456 8.42220 39776 ft 487 kts 271°
2026-04-20 19:51 4.08915 8.35446 39779 ft 487 kts 271°
2026-04-20 19:51 4.09374 8.28663 39794 ft 487 kts 271°
2026-04-20 19:52 4.09831 8.21895 39803 ft 487 kts 271°
2026-04-20 19:52 4.10289 8.15117 39805 ft 487 kts 271°
2026-04-20 19:53 4.10745 8.08339 39817 ft 487 kts 271°
2026-04-20 19:53 4.11200 8.01581 39817 ft 486 kts 271°
2026-04-20 19:54 4.11654 7.94827 39810 ft 486 kts 271°
2026-04-20 19:54 4.12647 7.88128 39745 ft 491 kts 283°
2026-04-20 19:55 4.14728 7.81649 39799 ft 492 kts 287°
2026-04-20 19:55 4.17155 7.75265 39818 ft 488 kts 289°
2026-04-20 19:56 4.19707 7.68955 39831 ft 486 kts 290°
2026-04-20 19:56 4.22259 7.62717 39845 ft 487 kts 290°
2026-04-20 19:57 4.24825 7.56443 39838 ft 487 kts 290°
2026-04-20 19:57 4.27380 7.50186 39845 ft 486 kts 290°
2026-04-20 19:58 4.29953 7.43878 39831 ft 491 kts 290°
2026-04-20 19:58 4.32532 7.37548 39814 ft 491 kts 290°
2026-04-20 19:59 4.35098 7.31222 39818 ft 489 kts 290°
2026-04-20 19:59 4.37643 7.24942 39842 ft 482 kts 289°
2026-04-20 20:00 4.40160 7.18723 39859 ft 482 kts 289°
2026-04-20 20:00 4.42679 7.12497 39867 ft 483 kts 289°
2026-04-20 20:01 4.45209 7.06245 39857 ft 483 kts 289°
2026-04-20 20:01 4.47725 7.00029 39872 ft 482 kts 289°
2026-04-20 20:02 4.50246 6.93797 39880 ft 482 kts 289°
2026-04-20 20:02 4.52775 6.87579 39873 ft 482 kts 290°
2026-04-20 20:03 4.55313 6.81370 39886 ft 481 kts 290°
2026-04-20 20:03 4.57854 6.75155 39891 ft 481 kts 290°
2026-04-20 20:04 4.60391 6.68947 39883 ft 481 kts 290°
2026-04-20 20:04 4.62931 6.62740 39896 ft 481 kts 290°
2026-04-20 20:05 4.65465 6.56558 39890 ft 479 kts 290°
2026-04-20 20:05 4.67992 6.50391 39879 ft 479 kts 290°
2026-04-20 20:06 4.70524 6.44210 39881 ft 479 kts 290°
2026-04-20 20:06 4.73056 6.38027 39868 ft 479 kts 290°
2026-04-20 20:07 4.75587 6.31843 39854 ft 479 kts 290°
2026-04-20 20:07 4.78112 6.25673 39848 ft 479 kts 290°
2026-04-20 20:08 4.80645 6.19481 39838 ft 479 kts 290°
2026-04-20 20:08 4.83168 6.13281 39828 ft 481 kts 290°
2026-04-20 20:09 4.85673 6.07063 39826 ft 481 kts 290°
2026-04-20 20:09 4.88163 6.00874 39821 ft 481 kts 290°
2026-04-20 20:10 4.90683 5.94611 39817 ft 484 kts 289°
2026-04-20 20:10 4.93189 5.88384 39818 ft 485 kts 289°
2026-04-20 20:11 4.95712 5.82113 39812 ft 484 kts 289°
2026-04-20 20:11 4.98232 5.75849 39824 ft 485 kts 289°
2026-04-20 20:12 5.00755 5.69572 39814 ft 485 kts 289°
2026-04-20 20:12 5.03279 5.63294 39816 ft 485 kts 289°
2026-04-20 20:13 5.07093 5.53840 39817 ft 486 kts 289°
2026-04-20 20:13 5.09632 5.47556 39812 ft 485 kts 290°
2026-04-20 20:14 5.12149 5.41323 39824 ft 485 kts 289°
2026-04-20 20:14 5.14684 5.35045 39814 ft 486 kts 289°
2026-04-20 20:15 5.17220 5.28759 39815 ft 486 kts 289°
2026-04-20 20:15 5.19752 5.22483 39824 ft 486 kts 289°
2026-04-20 20:16 5.22288 5.16195 39811 ft 485 kts 289°
2026-04-20 20:16 5.24810 5.09939 39817 ft 484 kts 289°
2026-04-20 20:17 5.27337 5.03668 39823 ft 485 kts 289°
2026-04-20 20:17 5.29865 4.97391 39810 ft 485 kts 289°
2026-04-20 20:18 5.32390 4.91121 39821 ft 484 kts 289°
2026-04-20 20:18 5.34916 4.84848 39819 ft 485 kts 289°
2026-04-20 20:19 5.37435 4.78587 39811 ft 484 kts 289°
2026-04-20 20:19 5.39940 4.72361 39824 ft 484 kts 289°
2026-04-20 20:20 5.42476 4.66055 39815 ft 484 kts 289°
2026-04-20 20:20 5.44985 4.59800 39815 ft 483 kts 289°
2026-04-20 20:21 5.47469 4.53586 39824 ft 483 kts 289°
2026-04-20 20:21 5.49971 4.47321 39813 ft 483 kts 289°
2026-04-20 20:22 5.52469 4.41067 39823 ft 482 kts 289°
2026-04-20 20:22 5.54961 4.34826 39824 ft 482 kts 289°
2026-04-20 20:23 5.57454 4.28579 39814 ft 482 kts 289°
2026-04-20 20:23 5.59946 4.22335 39827 ft 482 kts 289°
2026-04-20 20:24 5.62452 4.16051 39820 ft 482 kts 289°
2026-04-20 20:24 5.64912 4.09882 39808 ft 476 kts 290°
2026-04-20 20:25 5.67372 4.03712 39821 ft 476 kts 290°
2026-04-20 20:25 5.69835 3.97527 39820 ft 477 kts 290°
2026-04-20 20:26 5.71897 3.92349 39812 ft 476 kts 290°
2026-04-20 20:26 5.74356 3.86175 39826 ft 476 kts 290°
2026-04-20 20:27 5.76915 3.80032 39819 ft 477 kts 291°
2026-04-20 20:27 5.79544 3.73919 39817 ft 477 kts 291°
2026-04-20 20:28 5.82171 3.67809 39835 ft 475 kts 291°
2026-04-20 20:28 5.84773 3.61742 39853 ft 473 kts 291°
2026-04-20 20:29 5.87381 3.55654 39864 ft 475 kts 291°
2026-04-20 20:29 5.89990 3.49562 39861 ft 475 kts 291°
2026-04-20 20:30 5.92582 3.43505 39874 ft 475 kts 291°
2026-04-20 20:30 5.95187 3.37418 39874 ft 475 kts 291°
2026-04-20 20:31 5.97811 3.31283 39867 ft 474 kts 291°
2026-04-20 20:31 6.00417 3.25188 39877 ft 474 kts 291°
2026-04-20 20:32 6.03020 3.19097 39863 ft 475 kts 291°
2026-04-20 20:32 6.05621 3.13008 39857 ft 474 kts 291°
2026-04-20 20:33 6.08219 3.06924 39864 ft 474 kts 291°
2026-04-20 20:33 6.10817 3.00840 39851 ft 474 kts 291°
2026-04-20 20:34 6.13415 2.94751 39858 ft 474 kts 291°
2026-04-20 20:34 6.16013 2.88664 39867 ft 474 kts 291°
2026-04-20 20:35 6.18594 2.82612 39859 ft 474 kts 291°
2026-04-20 20:35 6.21184 2.76531 39870 ft 473 kts 291°
2026-04-20 20:36 6.23695 2.70415 39867 ft 473 kts 290°
2026-04-20 20:36 6.26163 2.64295 39851 ft 473 kts 290°
2026-04-20 20:37 6.28627 2.58174 39840 ft 473 kts 290°
2026-04-20 20:37 6.31095 2.52047 39852 ft 472 kts 290°
2026-04-20 20:38 6.33559 2.45931 39847 ft 472 kts 290°
2026-04-20 20:38 6.35325 2.39624 39801 ft 467 kts 274°
2026-04-20 20:39 6.34982 2.33133 39871 ft 466 kts 262°
2026-04-20 20:39 6.34055 2.26701 39844 ft 465 kts 260°
2026-04-20 20:40 6.33052 2.20283 39836 ft 464 kts 260°
2026-04-20 20:40 6.32057 2.13877 39847 ft 465 kts 261°
2026-04-20 20:41 6.31067 2.07440 39789 ft 467 kts 261°
2026-04-20 20:41 6.30568 2.04199 39306 ft 470 kts 261°
2026-04-20 20:41 6.30071 2.00965 38792 ft 466 kts 261°
2026-04-20 20:42 6.29579 1.97763 38284 ft 460 kts 261°
2026-04-20 20:42 6.29093 1.94600 37797 ft 457 kts 261°
2026-04-20 20:42 6.28607 1.91446 37323 ft 457 kts 261°
2026-04-20 20:42 6.28118 1.88269 36850 ft 462 kts 261°
2026-04-20 20:43 6.27623 1.85058 36369 ft 467 kts 261°
2026-04-20 20:43 6.27125 1.81829 35882 ft 469 kts 261°
2026-04-20 20:43 6.26621 1.78585 35399 ft 469 kts 261°
2026-04-20 20:43 6.26113 1.75349 34909 ft 469 kts 261°
2026-04-20 20:44 6.25601 1.72110 34385 ft 470 kts 261°
2026-04-20 20:44 6.25085 1.68853 33836 ft 472 kts 261°
2026-04-20 20:44 6.24567 1.65594 33273 ft 473 kts 261°
2026-04-20 20:44 6.24048 1.62326 32699 ft 474 kts 261°
2026-04-20 20:45 6.23528 1.59055 32119 ft 475 kts 261°
2026-04-20 20:45 6.23006 1.55769 31537 ft 475 kts 261°
2026-04-20 20:45 6.22487 1.52508 30947 ft 469 kts 261°
2026-04-20 20:45 6.21976 1.49293 30365 ft 463 kts 261°
2026-04-20 20:46 6.21471 1.46124 29792 ft 458 kts 261°
2026-04-20 20:46 6.20970 1.42966 29222 ft 456 kts 261°
2026-04-20 20:46 6.20471 1.39826 28654 ft 455 kts 261°
2026-04-20 20:46 6.19974 1.36700 28087 ft 452 kts 261°
2026-04-20 20:47 6.19478 1.33586 27522 ft 450 kts 261°
2026-04-20 20:47 6.18956 1.30496 26952 ft 448 kts 258°
2026-04-20 20:47 6.18116 1.27490 26396 ft 445 kts 252°
2026-04-20 20:47 6.17110 1.24561 25847 ft 442 kts 250°
2026-04-20 20:48 6.16015 1.21680 25291 ft 440 kts 248°
2026-04-20 20:48 6.14862 1.18837 24741 ft 437 kts 247°
2026-04-20 20:48 6.13682 1.16033 24199 ft 434 kts 246°
2026-04-20 20:48 6.12493 1.13261 23664 ft 432 kts 246°
2026-04-20 20:49 6.11297 1.10496 23131 ft 429 kts 246°
2026-04-20 20:49 6.10110 1.07760 22603 ft 427 kts 246°
2026-04-20 20:49 6.08928 1.05034 22076 ft 424 kts 246°
2026-04-20 20:49 6.07752 1.02324 21552 ft 421 kts 246°
2026-04-20 20:50 6.06617 0.99633 21035 ft 417 kts 247°
2026-04-20 20:50 6.05574 0.96927 20519 ft 412 kts 248°
2026-04-20 20:50 6.04578 0.94255 20012 ft 405 kts 248°
2026-04-20 20:50 6.03605 0.91627 19517 ft 399 kts 248°
2026-04-20 20:51 6.02642 0.89029 19028 ft 393 kts 248°
2026-04-20 20:51 6.01692 0.86476 18550 ft 388 kts 248°
2026-04-20 20:51 6.00750 0.83953 18078 ft 383 kts 248°
2026-04-20 20:51 5.99820 0.81465 17614 ft 378 kts 247°
2026-04-20 20:52 5.98923 0.79008 17149 ft 374 kts 249°
2026-04-20 20:52 5.98322 0.76477 16696 ft 370 kts 256°
2026-04-20 20:52 5.97890 0.73950 16325 ft 363 kts 258°
2026-04-20 20:52 5.97504 0.71473 16016 ft 354 kts 259°
2026-04-20 20:53 5.97130 0.69063 15716 ft 345 kts 260°
2026-04-20 20:53 5.96754 0.66712 15422 ft 337 kts 261°
2026-04-20 20:53 5.96387 0.64405 15130 ft 329 kts 261°
2026-04-20 20:53 5.96028 0.62166 14846 ft 322 kts 261°
2026-04-20 20:54 5.95672 0.59952 14565 ft 319 kts 261°
2026-04-20 20:54 5.95317 0.57757 14283 ft 319 kts 261°
2026-04-20 20:54 5.94960 0.55553 13996 ft 320 kts 261°
2026-04-20 20:54 5.94601 0.53344 13703 ft 321 kts 261°
2026-04-20 20:55 5.94242 0.51135 13406 ft 319 kts 261°
2026-04-20 20:55 5.93888 0.48961 13111 ft 312 kts 261°
2026-04-20 20:55 5.93542 0.46836 12892 ft 303 kts 261°
2026-04-20 20:55 5.93208 0.44787 12679 ft 294 kts 261°
2026-04-20 20:56 5.92881 0.42780 12450 ft 288 kts 261°
2026-04-20 20:56 5.92558 0.40798 12212 ft 286 kts 261°
2026-04-20 20:56 5.92237 0.38829 11964 ft 287 kts 261°
2026-04-20 20:56 5.91912 0.36843 11706 ft 289 kts 262°
2026-04-20 20:57 5.91583 0.34856 11440 ft 295 kts 264°
2026-04-20 20:57 5.91246 0.32783 11158 ft 307 kts 264°
2026-04-20 20:57 5.90900 0.30625 10857 ft 317 kts 264°
2026-04-20 20:57 5.90542 0.28398 10541 ft 322 kts 263°
2026-04-20 20:58 5.90182 0.26180 10275 ft 320 kts 263°
2026-04-20 20:58 5.89825 0.24002 10078 ft 312 kts 262°
2026-04-20 20:58 5.89480 0.21893 9757 ft 309 kts 262°
2026-04-20 20:58 5.89128 0.19738 9378 ft 308 kts 262°
2026-04-20 20:59 5.88781 0.17615 9035 ft 306 kts 261°
2026-04-20 20:59 5.88442 0.15543 8748 ft 303 kts 261°
2026-04-20 20:59 5.88099 0.13448 8485 ft 298 kts 261°
2026-04-20 20:59 5.87770 0.11439 8203 ft 291 kts 261°
2026-04-20 21:00 5.87446 0.09462 7880 ft 274 kts 261°
2026-04-20 21:00 5.87150 0.07658 7660 ft 258 kts 261°
2026-04-20 21:00 5.86863 0.05907 7436 ft 245 kts 261°
2026-04-20 21:00 5.86592 0.04247 7286 ft 238 kts 261°
2026-04-20 21:01 5.86327 0.02633 7036 ft 229 kts 260°
2026-04-20 21:01 5.86081 0.01131 6808 ft 214 kts 260°
2026-04-20 21:01 5.85842 -0.00322 6460 ft 208 kts 260°
2026-04-20 21:01 5.85611 -0.01731 6097 ft 201 kts 261°
2026-04-20 21:02 5.85385 -0.03107 5719 ft 197 kts 261°
2026-04-20 21:02 5.85164 -0.04457 5338 ft 195 kts 261°
2026-04-20 21:02 5.84912 -0.05784 4916 ft 195 kts 256°
2026-04-20 21:02 5.84491 -0.06606 4513 ft 198 kts 238°
2026-04-20 21:03 5.83034 -0.07575 4159 ft 182 kts 206°
2026-04-20 21:03 5.81905 -0.08030 4051 ft 168 kts 201°
2026-04-20 21:03 5.80845 -0.08424 4042 ft 159 kts 200°
2026-04-20 21:03 5.79810 -0.08813 4065 ft 157 kts 200°
2026-04-20 21:04 5.79132 -0.09074 4095 ft 158 kts 200°
2026-04-20 21:04 5.77767 -0.09610 4130 ft 158 kts 201°
2026-04-20 21:04 5.76747 -0.10021 4096 ft 159 kts 201°
2026-04-20 21:04 5.75724 -0.10443 4074 ft 159 kts 202°
2026-04-20 21:05 5.74697 -0.10860 3965 ft 162 kts 201°
2026-04-20 21:05 5.73635 -0.11293 3484 ft 165 kts 202°
2026-04-20 21:05 5.72587 -0.11722 2987 ft 163 kts 202°
2026-04-20 21:05 5.71536 -0.12156 2530 ft 159 kts 202°
2026-04-20 21:06 5.70539 -0.12576 2198 ft 155 kts 203°
2026-04-20 21:06 5.69559 -0.13018 1950 ft 153 kts 204°
2026-04-20 21:06 5.68601 -0.13433 1863 ft 148 kts 203°
2026-04-20 21:06 5.67634 -0.13782 1685 ft 147 kts 200°
2026-04-20 21:07 5.66678 -0.14186 1435 ft 151 kts 203°
2026-04-20 21:07 5.65717 -0.14594 1236 ft 150 kts 203°
2026-04-20 21:07 5.64770 -0.14992 1028 ft 145 kts 202°
2026-04-20 21:07 5.64129 -0.15224 838 ft 144 kts 200°
2026-04-20 21:08 5.63213 -0.15621 565 ft 143 kts 202°
2026-04-20 21:08 5.62334 -0.15986 439 ft 131 kts 202°
2026-04-20 21:08 5.61506 -0.16335 238 ft 122 kts 201°
2026-04-20 21:08 5.60871 -0.16597 210 ft 65 kts 200°
2026-04-20 21:09 5.60722 -0.16651 210 ft 1 kts 200°
2026-04-20 21:09 5.60662 -0.16673 210 ft 11 kts 200°
2026-04-20 21:09 5.60573 -0.16705 210 ft 15 kts 201°
2026-04-20 21:09 5.60504 -0.16732 210 ft 17 kts 202°
2026-04-20 21:10 5.60386 -0.16781 210 ft 19 kts 202°
2026-04-20 21:10 5.60257 -0.16834 210 ft 21 kts 202°
2026-04-20 21:10 5.60128 -0.16887 210 ft 19 kts 202°
2026-04-20 21:10 5.60011 -0.16940 210 ft 18 kts 212°
2026-04-20 21:11 5.59914 -0.17021 210 ft 16 kts 226°
2026-04-20 21:11 5.59871 -0.17073 210 ft 2 kts 230°
2026-04-20 21:11 5.59865 -0.17080 210 ft 0 kts 230°
2026-04-20 21:13 5.59864 -0.17080 210 ft 0 kts 230°
2026-04-20 21:13 5.59852 -0.17096 210 ft 5 kts 231°
2026-04-20 21:13 5.59828 -0.17130 210 ft 5 kts 249°
2026-04-20 21:14 5.59836 -0.17176 210 ft 9 kts 301°
2026-04-20 21:14 5.59840 -0.17183 210 ft 0 kts 302°
2026-04-20 21:15 5.59841 -0.17183 210 ft 0 kts 302°
2026-04-20 21:15 5.59848 -0.17188 210 ft 3 kts 332°
2026-04-20 21:15 5.59890 -0.17188 210 ft 9 kts 13°
2026-04-20 21:16 5.59953 -0.17167 210 ft 0 kts 21°
2026-04-20 21:16 5.59973 -0.17159 210 ft 7 kts 22°
2026-04-20 21:16 5.60038 -0.17132 210 ft 13 kts 22°
2026-04-20 21:16 5.60129 -0.17094 210 ft 16 kts 22°
2026-04-20 21:17 5.60206 -0.17062 210 ft 9 kts 22°
2026-04-20 21:17 5.60229 -0.17060 210 ft 5 kts 344°
2026-04-20 21:17 5.60253 -0.17079 210 ft 5 kts 305°
2026-04-20 21:17 5.60271 -0.17115 210 ft 4 kts 294°
2026-04-20 21:18 5.60277 -0.17128 210 ft 0 kts 294°
2026-04-20 21:18 5.60277 -0.17129 210 ft 0 kts 294°
2026-04-20 21:18 5.60278 -0.17129 210 ft 0 kts 294°
2026-04-20 21:18 5.60278 -0.17131 210 ft 0 kts 294°
2026-04-20 21:19 5.60279 -0.17134 210 ft 0 kts 294°
2026-04-20 21:19 5.60280 -0.17134 210 ft 0 kts 294°
2026-04-20 21:21 5.60280 -0.17135 210 ft 0 kts 294°
2026-04-20 21:23 5.60280 -0.17136 210 ft 0 kts 294°